Content
SEND FEEDBACK

Daily
Averages
Monthly
Summary
United States of America

GREENBRAE, CALIFORNIA


Home > North America > United States > California
Elevation: 10 feet     Latitude: 37 57N     Longitude: 122 33W

WEATHER
 
SELECT A DAY
Number of Records: 164,583;   Date Range: 9/27/07 - 7/21/14
 
SHARE

PRINT THIS DATA

[ ← Previous Day ]
WEATHER ALMANAC - FEBRUARY 13, 2013
[ Next Day → ]
[ °C ]   °F
Weather ElementAverageHighLow
Temperature46.3 °F64.4 °F (2:35 pm)35.6 °F (6:15 am)
Dewpoint42.2 °F50 °F (11:15 am)35.6 °F (6:15 am)
Humidity88.7 %100 % (12:35 am)40 % (3:55 pm)
Barometer30.30 in30.37 in (9:55 am)30.22 in (4:55 pm)
Wind Speed1.5 mph9.2 mph (5:55 pm)
Weather ElementAverage
Visibility5.9 mi
Wind DirectionENE (68.4 °)

Weather ElementTotal
Precipitation---
Heating Degree Days15 (Base 65)
Averaged from 70 records on February 13, 2013
WEATHER CONDITIONS BREAKOUT
WIND DIRECTION BREAKOUT
WEATHER BY HOUR - FEBRUARY 13, 2013
[ °C ]   °F
Local TimeTemperatureDewpointHumidityBarometerVisibilityWind DirectionWind SpeedGust SpeedPrecipitationEventsConditions
12:35 AM37.4 °F37.4 °F100 %30.35 in1.0 miCalmClear
12:55 AM37.4 °F37.4 °F100 %30.35 in0.2 miCalmFogFog
1:15 AM37.4 °F37.4 °F100 %30.35 in0.2 miCalmFogFog
1:35 AM37.4 °F37.4 °F100 %30.35 in0.2 miCalmFogFog
1:55 AM39.2 °F39.2 °F100 %30.35 in0.2 miCalmFogFog
2:15 AM39.2 °F39.2 °F100 %30.35 in0.5 miNNW (330°)3.5 mphFogFog
2:35 AM39.2 °F39.2 °F100 %30.34 in0.2 miNNW (340°)3.5 mphOvercast
2:55 AM41.0 °F41.0 °F100 %30.34 in0.2 miNNW (330°)4.6 mphFogFog
3:15 AM39.2 °F39.2 °F100 %30.33 in0.2 miCalmFogFog
3:35 AM39.2 °F39.2 °F100 %30.33 in0.2 miCalmFogFog
3:55 AM37.4 °F37.4 °F100 %30.34 in0.2 miCalmFogFog
4:15 AM37.4 °F37.4 °F100 %30.33 in0.2 miCalmFogFog
4:35 AM37.4 °F37.4 °F100 %30.34 in0.2 miCalmFogFog
4:55 AM37.4 °F37.4 °F100 %30.34 in0.2 miCalmFogFog
5:15 AM39.2 °F39.2 °F100 %30.34 in0.2 miCalmFogFog
5:35 AM39.2 °F39.2 °F100 %30.34 in0.2 miNorth (350°)3.5 mphFogFog
5:55 AM37.4 °F37.4 °F100 %30.34 in0.2 miNorth (10°)3.5 mphFogFog
6:15 AM35.6 °F35.6 °F100 %30.34 in0.2 miCalmFogFog
6:35 AM35.6 °F35.6 °F100 %30.34 in0.2 miCalmFogFog
6:55 AM35.6 °F35.6 °F100 %30.35 in0.2 miCalmFogFog
7:15 AM35.6 °F35.6 °F100 %30.35 in0.2 miCalmFogFog
7:35 AM35.6 °F35.6 °F100 %30.35 in0.2 miCalmFogFog
7:55 AM35.6 °F35.6 °F100 %30.36 in0.2 miCalmFogFog
8:15 AM37.4 °F37.4 °F100 %30.36 in0.2 miCalmFogFog
8:35 AM37.4 °F37.4 °F100 %30.36 in0.5 miCalmFogFog
8:55 AM37.4 °F37.4 °F100 %30.36 in0.2 miCalmFogFog
9:15 AM39.2 °F39.2 °F100 %30.36 in0.2 miCalmFogFog
9:35 AM41.0 °F41.0 °F100 %30.36 in0.8 miCalmOvercast
9:55 AM41.0 °F41.0 °F100 %30.37 in1.2 miCalmOvercast
10:15 AM44.6 °F44.6 °F100 %30.36 in7.0 miCalmMostly Cloudy
10:55 AM48.2 °F48.2 °F100 %30.36 in10.0 miCalmClear
11:15 AM50.0 °F50.0 °F100 %30.35 in10.0 miCalmClear
11:35 AM53.6 °F50.0 °F88 %30.34 in10.0 miCalmClear
11:55 AM55.4 °F50.0 °F82 %30.33 in10.0 miCalmClear
12:15 PM57.2 °F50.0 °F77 %30.32 in10.0 miCalmClear
12:35 PM57.2 °F50.0 °F77 %30.31 in10.0 miCalmClear
12:55 PM59.0 °F50.0 °F72 %30.30 in10.0 miENE (70°)3.5 mphClear
1:15 PM59.0 °F50.0 °F72 %30.29 in10.0 miCalmClear
1:35 PM62.6 °F50.0 °F63 %30.27 in10.0 miSouth (180°)3.5 mphClear
1:55 PM62.6 °F48.2 °F59 %30.26 in10.0 miSouth (170°)5.8 mphClear
2:15 PM62.6 °F46.4 °F55 %30.26 in10.0 miSouth (170°)5.8 mphClear
2:35 PM64.4 °F46.4 °F52 %30.25 in10.0 miSouth (170°)5.8 mphClear
2:55 PM64.4 °F46.4 °F52 %30.25 in10.0 miSE (140°)4.6 mphClear
3:15 PM64.4 °F46.4 °F52 %30.24 in10.0 miSSE (160°)3.5 mphClear
3:35 PM64.4 °F44.6 °F49 %30.24 in10.0 miSouth (180°)3.5 mphClear
3:55 PM64.4 °F39.2 °F40 %30.24 in10.0 miNorth (10°)3.5 mphClear
4:15 PM64.4 °F39.2 °F40 %30.23 in10.0 miNNW (330°)3.5 mphClear
4:35 PM64.4 °F41.0 °F42 %30.23 in10.0 miNNW (340°)3.5 mphClear
4:55 PM62.6 °F41.0 °F45 %30.22 in10.0 miCalmClear
5:15 PM59.0 °F41.0 °F51 %30.22 in10.0 miNNW (330°)4.6 mphClear
5:35 PM55.4 °F46.4 °F72 %30.22 in10.0 miNNW (340°)6.9 mphClear
5:55 PM53.6 °F46.4 °F77 %30.22 in10.0 miNNE (20°)9.2 mphClear
6:15 PM50.0 °F48.2 °F94 %30.22 in10.0 miNorth (360°)8.1 mphClear
6:35 PM48.2 °F48.2 °F100 %30.22 in10.0 miNNE (30°)3.5 mphClear
6:55 PM46.4 °F46.4 °F100 %30.23 in10.0 miCalmClear
7:15 PM44.6 °F44.6 °F100 %30.23 in10.0 miCalmClear
7:35 PM44.6 °F44.6 °F100 %30.23 in10.0 miCalmClear
7:55 PM46.4 °F46.4 °F100 %30.23 in10.0 miCalmClear
8:15 PM46.4 °F46.4 °F100 %30.24 in10.0 miCalmClear
8:35 PM44.6 °F44.6 °F100 %30.24 in10.0 miCalmClear
8:55 PM44.6 °F44.6 °F100 %30.24 in10.0 miCalmClear
9:15 PM41.0 °F41.0 °F100 %30.24 in10.0 miCalmClear
9:35 PM42.8 °F42.8 °F100 %30.24 in10.0 miCalmClear
9:55 PM42.8 °F42.8 °F100 %30.24 in10.0 miCalmClear
10:15 PM42.8 °F42.8 °F100 %30.24 in10.0 miCalmClear
10:35 PM41.0 °F41.0 °F100 %30.25 in10.0 miSouth (190°)3.5 mphClear
10:55 PM41.0 °F41.0 °F100 %30.25 in10.0 miSSW (210°)3.5 mphClear
11:15 PM41.0 °F41.0 °F100 %30.25 in10.0 miCalmClear
11:35 PM41.0 °F41.0 °F100 %30.25 in10.0 miCalmClear
11:55 PM39.2 °F39.2 °F100 %30.25 in7.0 miNNE (30°)3.5 mphClear
Hourly data recorded from KDVO, located miles away from Greenbrae, California







STORIES FROM OUR PARTNERS